Overview Statistics Trail Chart Weather Telemetry Raw packets
 

This is the latest recevied weather packets stored in our database for station/object IW2HNF-3. If no packets are shown the sender has not sent any weather packets the latest 10 day(s).

<< 1 2 3 4 5 >>
Time Temp. Humidity Pressure Rain* Wind** Luminosity Snow
1788598871 27.22° C 57% 1016.7 hPa 0 mm - - -
1788598247 26.67° C 57% 1016.7 hPa 0 mm - - -
1788597672 26.67° C 56% 1016.7 hPa 0 mm - - -
1788597047 26.11° C 61% 1016.6 hPa 0 mm - - -
1788596471 26.11° C 60% 1016.5 hPa 0 mm - - -
1788595848 26.67° C 60% 1016.4 hPa 0 mm - - -
1788595272 26.11° C 61% 1016.4 hPa 0 mm - - -
1788594647 25.56° C 62% 1016.4 hPa 0 mm - - -
1788594071 25° C 64% 1016.3 hPa 0 mm - - -
1788593447 25° C 64% 1016.3 hPa 0 mm - - -
1788592871 24.44° C 68% 1016.2 hPa 0 mm - - -
1788592247 24.44° C 68% 1016.2 hPa 0 mm - - -
1788591671 24.44° C 69% 1016.2 hPa 0 mm - - -
1788591056 23.89° C 70% 1016.2 hPa 0 mm - - -
1788590471 23.89° C 70% 1016.2 hPa 0 mm - - -
1788589848 23.89° C 71% 1016.1 hPa 0 mm - - -
1788589271 23.33° C 71% 1016.1 hPa 0 mm - - -
1788588647 22.78° C 71% 1016.1 hPa 0 mm - - -
1788588312 22.22° C 73% 1016 hPa 0 mm - - -
1788587455 21.67° C 74% 1015.9 hPa 0 mm - - -
1788586872 21.67° C 74% 1015.8 hPa 0 mm - - -
1788586247 21.67° C 75% 1015.8 hPa 0 mm - - -
1788585671 21.67° C 76% 1015.7 hPa 0 mm - - -
1788585048 21.67° C 75% 1015.6 hPa 0 mm - - -
1788584471 21.67° C 74% 1015.6 hPa 0 mm - - -

* Rain latest hour (hover to see other rain measurements)
** Current wind speed in m/s (hover to see current wind gust speed)